Regional Weather Roundup
Issued by NWS

Home | Current Version | Previous Version | Text Only | Print | Product List | Glossary Off
Versions: 1 2 3 4 5 6 7 8 9 10 11 12 13 14 15 16 17 18 19 20 21 22 23 24 25 26 27 28 29 30 31 32 33 34 35 36 37 38 39 40 41 42 43 44 45 46 47 48 49 50

000
ASUS45 KCYS 272310
RWRWY

WYOMING REGIONAL WEATHER ROUNDUP
NATIONAL WEATHER SERVICE CHEYENNE WY
500 PM MDT WED MAY 27 2015

NOTE:  "FAIR" INDICATES FEW OR NO CLOUDS BELOW 12,000 FEET
WITH NO SIGNIFICANT WEATHER AND/OR OBSTRUCTIONS TO VISIBILITY.

WYZ001-280000-
YELLOWSTONE NATIONAL PARK

CITY           SKY/WX    TMP DP  RH WIND       PRES   REMARKS
LK YELLOWSTONE   N/A     51  34  52 MISG      30.13S
W YELLOWSTONE  NOT AVBL

$$
WYZ002>013-054>058-071-098>099-280000-
NORTHERN WYOMING

CITY           SKY/WX    TMP DP  RH WIND       PRES   REMARKS
JACKSON        NOT AVBL
CODY           FAIR      63  46  55 E8        29.96F
GREYBULL       FAIR      71  40  32 W12       29.91F
WORLAND        FAIR      73  45  36 N9        29.91F
SHERIDAN       FAIR      68  51  54 N6        29.94F
BUFFALO        PTSUNNY   64  49  57 N8        29.98S
GILLETTE       FAIR      67  55  65 NE10      29.94S
HULETT         LGT RAIN  57  54  88 E10       29.96F
NEWCASTLE      FAIR      66  45  45 S8        29.95F

$$
WYZ014>020-022>026-101>103-280000-
CENTRAL WYOMING

CITY           SKY/WX    TMP DP  RH WIND       PRES   REMARKS
BIG PINEY      CLOUDY    53  40  61 N6        30.12S
PINEDALE       CLOUDY    52  41  66 W3        30.13S
DUBOIS         CLOUDY    52  34  50 NW9       30.09F
LANDER         PTSUNNY   58  43  57 NW9       29.99S
RIVERTON       TSTM      57  43  59 SW28G43   29.99R
CASPER         PTSUNNY   68  40  35 SW9       29.97F
DOUGLAS        FAIR      73  43  33 W10       29.96F

$$
WYZ021-027>030-104>119-280000-
SOUTHERN WYOMING

CITY           SKY/WX    TMP DP  RH WIND       PRES   REMARKS
EVANSTON       FAIR      60  37  42 W18G26    30.12S
KEMMERER       MOCLDY    57  36  44 W17G24    30.12F
FORT BRIDGER   CLOUDY    57  43  58 W10G17    30.14S
ROCK SPRINGS   LGT RAIN  47  44  90 W17       30.15R
RAWLINS        FAIR      63  37  38 SW16G23   30.08F
SARATOGA       MOCLDY    61  34  36 SW13      30.11F
LARAMIE        FAIR      64  35  34 W10       30.09F
CHEYENNE       FAIR      64  45  49 SE8       30.04F
TORRINGTON     FAIR      72  50  45 S12       29.93F
PINE BLUFFS    FAIR      64  46  52 NE3       30.01F

$$


USA.gov is the U.S. government's official web portal to all federal, state and local government web resources and services.